�������l�o���
Date,Time,MP-1(��Sv/h),MP-2(��Sv/h),MP-3(��Sv/h),MP-4(��Sv/h),MP-5(��Sv/h),MP-6(��Sv/h),MP-7(��Sv/h),MP-8(��Sv/h),����,����(m/s),���J
2019/06/15,00:00,0.756,1.097,0.741,1.343,0.992,0.436,0.756,0.714,��,7.1,��
2019/06/15,00:10,0.757,1.095,0.741,1.346,0.992,0.435,0.756,0.714,��,6.3,��
2019/06/15,00:20,0.757,1.094,0.743,1.346,0.992,0.436,0.754,0.714,��,7.2,��
2019/06/15,00:30,0.759,1.095,0.742,1.347,0.988,0.435,0.755,0.715,��,6.8,��
2019/06/15,00:40,0.758,1.097,0.741,1.345,0.991,0.434,0.755,0.714,��,6.8,��
2019/06/15,00:50,0.758,1.093,0.742,1.345,0.991,0.436,0.754,0.715,��,6.8,��
2019/06/15,01:00,0.757,1.092,0.741,1.346,0.992,0.436,0.754,0.716,��,7.1,��
2019/06/15,01:10,0.757,1.095,0.742,1.346,0.992,0.435,0.755,0.714,��,6.5,��
2019/06/15,01:20,0.758,1.095,0.742,1.344,0.993,0.436,0.755,0.715,��,6.6,��
2019/06/15,01:30,0.758,1.096,0.740,1.345,0.991,0.436,0.755,0.714,��,6.6,��
2019/06/15,01:40,0.759,1.096,0.740,1.345,0.992,0.436,0.756,0.715,��,6.3,��
2019/06/15,01:50,0.758,1.094,0.741,1.344,0.993,0.437,0.756,0.714,��,6.4,��
2019/06/15,02:00,0.758,1.097,0.742,1.344,0.990,0.436,0.756,0.715,��,7.6,��
2019/06/15,02:10,0.760,1.094,0.744,1.344,0.991,0.436,0.754,0.717,��,6.2,��
2019/06/15,02:20,0.758,1.093,0.742,1.343,0.991,0.435,0.756,0.714,��,6.6,��
2019/06/15,02:30,0.758,1.097,0.743,1.346,0.992,0.438,0.755,0.717,��,6.7,��
2019/06/15,02:40,0.757,1.095,0.743,1.345,0.992,0.436,0.757,0.716,��,6.3,�L
2019/06/15,02:50,0.758,1.095,0.744,1.343,0.993,0.437,0.755,0.715,��,6.5,�L
2019/06/15,03:00,0.757,1.094,0.742,1.344,0.992,0.436,0.754,0.717,��,7.5,�L
2019/06/15,03:10,0.759,1.092,0.741,1.347,0.995,0.437,0.756,0.713,��,7.2,�L
2019/06/15,03:20,0.758,1.092,0.743,1.344,0.992,0.435,0.754,0.716,��,7.0,�L
2019/06/15,03:30,0.756,1.092,0.743,1.343,0.990,0.436,0.755,0.714,��,7.2,�L
2019/06/15,03:40,0.759,1.091,0.744,1.343,0.990,0.437,0.755,0.716,��,6.1,�L
2019/06/15,03:50,0.756,1.088,0.740,1.344,0.988,0.436,0.754,0.715,��쓌,6.0,�L
2019/06/15,04:00,0.754,1.088,0.742,1.341,0.986,0.438,0.753,0.714,��,5.7,�L
2019/06/15,04:10,0.754,1.084,0.742,1.339,0.981,0.437,0.752,0.715,��쓌,5.2,�L
2019/06/15,04:20,0.753,1.086,0.740,1.341,0.982,0.436,0.752,0.714,��쓌,6.1,�L
2019/06/15,04:30,0.753,1.087,0.741,1.341,0.982,0.433,0.751,0.713,��쓌,6.3,�L
2019/06/15,04:40,0.754,1.086,0.741,1.342,0.984,0.434,0.752,0.714,��쓌,6.0,�L
2019/06/15,04:50,0.753,1.086,0.741,1.339,0.982,0.433,0.752,0.713,��쓌,5.4,�L
2019/06/15,05:00,0.745,1.075,0.736,1.334,0.979,0.434,0.751,0.709,��쓌,8.6,�L
2019/06/15,05:10,0.738,1.066,0.734,1.330,0.975,0.434,0.748,0.711,��쓌,8.3,�L
2019/06/15,05:20,0.738,1.063,0.732,1.328,0.974,0.433,0.749,0.709,��쓌,8.3,�L
2019/06/15,05:30,0.738,1.064,0.731,1.325,0.976,0.434,0.749,0.709,��쓌,7.1,�L
2019/06/15,05:40,0.738,1.062,0.732,1.325,0.978,0.433,0.749,0.709,��,6.8,�L
2019/06/15,05:50,0.738,1.065,0.728,1.324,0.974,0.434,0.748,0.707,��,5.2,�L
2019/06/15,06:00,0.736,1.057,0.729,1.324,0.972,0.431,0.746,0.705,��쓌,4.8,�L
2019/06/15,06:10,0.734,1.053,0.727,1.318,0.966,0.433,0.746,0.704,�쓌,7.0,�L
2019/06/15,06:20,0.732,1.054,0.724,1.314,0.967,0.432,0.742,0.706,�쓌,5.5,�L
2019/06/15,06:30,0.730,1.050,0.722,1.308,0.964,0.430,0.742,0.704,�쓌,6.2,�L
2019/06/15,06:40,0.730,1.046,0.720,1.308,0.960,0.431,0.742,0.703,��,6.9,�L
2019/06/15,06:50,0.731,1.048,0.721,1.309,0.959,0.430,0.743,0.702,��,7.1,�L
2019/06/15,07:00,0.730,1.047,0.721,1.305,0.960,0.430,0.742,0.704,��쐼,7.3,�L
2019/06/15,07:10,0.733,1.048,0.720,1.304,0.957,0.430,0.743,0.702,��,9.0,�L
2019/06/15,07:20,0.730,1.044,0.720,1.301,0.957,0.429,0.743,0.703,��,8.9,�L
2019/06/15,07:30,0.731,1.042,0.719,1.302,0.957,0.428,0.741,0.702,��,7.7,�L
2019/06/15,07:40,0.731,1.046,0.720,1.302,0.957,0.428,0.743,0.702,��,7.7,�L
2019/06/15,07:50,0.730,1.041,0.720,1.299,0.958,0.428,0.743,0.703,��,7.2,�L
2019/06/15,08:00,0.731,1.045,0.720,1.303,0.956,0.429,0.741,0.703,��쐼,7.5,�L
2019/06/15,08:10,0.731,1.044,0.719,1.301,0.955,0.427,0.742,0.701,��쐼,7.8,�L
2019/06/15,08:20,0.726,1.038,0.718,1.297,0.951,0.428,0.740,0.700,��,7.9,�L
2019/06/15,08:30,0.724,1.032,0.712,1.292,0.946,0.427,0.738,0.700,��쐼,6.7,�L
2019/06/15,08:40,0.721,1.028,0.711,1.287,0.943,0.425,0.737,0.700,��쐼,6.4,�L
2019/06/15,08:50,0.720,1.022,0.710,1.285,0.941,0.424,0.735,0.697,��쓌,9.7,�L
2019/06/15,09:00,0.719,1.022,0.706,1.279,0.936,0.421,0.733,0.695,��쐼,5.4,�L
2019/06/15,09:10,0.718,1.020,0.705,1.276,0.935,0.424,0.734,0.695,��쐼,5.4,�L
2019/06/15,09:20,0.719,1.016,0.707,1.276,0.937,0.425,0.734,0.695,��쐼,5.6,�L
2019/06/15,09:30,0.719,1.018,0.706,1.277,0.935,0.424,0.732,0.695,��,5.8,�L
2019/06/15,09:40,0.720,1.018,0.706,1.275,0.933,0.422,0.733,0.696,��쐼,5.1,�L
2019/06/15,09:50,0.720,1.021,0.705,1.276,0.937,0.422,0.732,0.698,��,4.5,�L
2019/06/15,10:00,0.720,1.022,0.707,1.279,0.934,0.423,0.734,0.697,��,3.9,�L
2019/06/15,10:10,0.723,1.025,0.709,1.278,0.938,0.426,0.733,0.697,��,3.8,�L
2019/06/15,10:20,0.725,1.025,0.711,1.280,0.939,0.423,0.734,0.698,��,2.5,��
2019/06/15,10:30,0.725,1.025,0.709,1.279,0.942,0.425,0.735,0.699,��,2.3,��
2019/06/15,10:40,0.724,1.028,0.712,1.281,0.942,0.425,0.736,0.696,��,1.7,��
2019/06/15,10:50,0.727,1.031,0.710,1.282,0.943,0.425,0.735,0.698,��,2.3,��
2019/06/15,11:00,0.728,1.030,0.712,1.282,0.942,0.425,0.735,0.699,��쓌,1.5,�L
2019/06/15,11:10,0.727,1.029,0.713,1.283,0.942,0.425,0.735,0.700,��쓌,2.0,�L
2019/06/15,11:20,0.727,1.030,0.709,1.285,0.940,0.425,0.735,0.700,�쓌,1.5,�L
2019/06/15,11:30,0.725,1.027,0.711,1.284,0.942,0.425,0.735,0.699,�쓌,1.5,�L
2019/06/15,11:40,0.726,1.031,0.712,1.285,0.941,0.425,0.736,0.699,��,1.7,�L
2019/06/15,11:50,0.724,1.031,0.708,1.287,0.942,0.424,0.735,0.699,��,1.7,�L
2019/06/15,12:00,0.724,1.026,0.711,1.285,0.940,0.423,0.734,0.695,��,2.0,�L
2019/06/15,12:10,0.721,1.022,0.709,1.282,0.937,0.425,0.735,0.697,���k��,2.2,�L
2019/06/15,12:20,0.719,1.019,0.706,1.282,0.935,0.425,0.733,0.695,��,2.0,�L
2019/06/15,12:30,0.718,1.019,0.704,1.280,0.934,0.424,0.733,0.695,��,2.5,�L
2019/06/15,12:40,0.718,1.020,0.704,1.277,0.935,0.426,0.731,0.697,��,2.0,�L
2019/06/15,12:50,0.717,1.017,0.707,1.278,0.934,0.427,0.732,0.696,���k��,2.6,�L
2019/06/15,13:00,0.718,1.016,0.706,1.277,0.934,0.425,0.733,0.695,���k��,2.6,�L
2019/06/15,13:10,0.717,1.013,0.703,1.275,0.932,0.425,0.731,0.695,���쓌,2.3,�L
2019/06/15,13:20,0.717,1.014,0.701,1.275,0.931,0.425,0.731,0.695,�쓌,3.5,�L
2019/06/15,13:30,0.718,1.013,0.701,1.273,0.931,0.425,0.731,0.695,���쓌,2.9,�L
2019/06/15,13:40,0.715,1.009,0.699,1.264,0.925,0.423,0.727,0.692,��,3.7,�L
2019/06/15,13:50,0.714,1.003,0.699,1.262,0.924,0.424,0.728,0.693,���쓌,6.3,�L
2019/06/15,14:00,0.716,1.006,0.701,1.264,0.926,0.425,0.730,0.691,���쓌,7.4,�L
2019/06/15,14:10,0.715,1.008,0.700,1.266,0.926,0.423,0.729,0.694,���쓌,7.9,�L
2019/06/15,14:20,0.715,1.010,0.700,1.265,0.927,0.426,0.729,0.694,���쓌,8.2,�L
2019/06/15,14:30,0.717,1.010,0.699,1.266,0.926,0.423,0.729,0.695,���쓌,8.9,�L
2019/06/15,14:40,0.715,1.015,0.700,1.270,0.926,0.423,0.730,0.694,���쓌,9.0,�L
2019/06/15,14:50,0.715,1.014,0.700,1.268,0.927,0.425,0.731,0.695,���쓌,8.5,�L
2019/06/15,15:00,0.717,1.013,0.701,1.270,0.926,0.425,0.730,0.695,���쓌,8.6,�L
2019/06/15,15:10,0.719,1.015,0.701,1.271,0.928,0.424,0.728,0.695,���쓌,8.5,�L
2019/06/15,15:20,0.717,1.011,0.700,1.270,0.926,0.423,0.730,0.695,���쓌,9.7,�L
2019/06/15,15:30,0.716,1.012,0.701,1.268,0.925,0.423,0.730,0.694,���쓌,9.3,�L
2019/06/15,15:40,0.717,1.013,0.700,1.268,0.924,0.423,0.729,0.694,���쓌,9.2,�L
2019/06/15,15:50,0.716,1.007,0.699,1.264,0.921,0.424,0.727,0.693,��,8.5,�L
2019/06/15,16:00,0.713,1.007,0.699,1.262,0.919,0.422,0.726,0.690,���쓌,7.3,�L
2019/06/15,16:10,0.711,1.004,0.695,1.261,0.917,0.424,0.726,0.692,���쓌,6.5,�L
2019/06/15,16:20,0.713,1.008,0.700,1.257,0.919,0.423,0.726,0.690,��,6.1,�L
2019/06/15,16:30,0.712,1.005,0.696,1.260,0.917,0.422,0.726,0.692,��,5.4,�L
2019/06/15,16:40,0.713,1.003,0.698,1.258,0.917,0.426,0.726,0.692,��,6.4,�L
2019/06/15,16:50,0.714,1.004,0.699,1.258,0.912,0.425,0.726,0.692,���k��,5.6,�L
2019/06/15,17:00,0.713,1.005,0.698,1.255,0.912,0.425,0.724,0.691,���k��,6.5,�L
2019/06/15,17:10,0.711,1.002,0.696,1.251,0.911,0.425,0.726,0.692,���k��,8.3,�L
2019/06/15,17:20,0.713,1.004,0.700,1.255,0.913,0.425,0.725,0.690,�k��,8.0,�L
2019/06/15,17:30,0.716,1.005,0.699,1.254,0.914,0.426,0.725,0.690,�k��,7.9,�L
2019/06/15,17:40,0.714,1.001,0.698,1.252,0.909,0.425,0.724,0.692,�k��,6.5,�L
2019/06/15,17:50,0.709,0.995,0.695,1.247,0.904,0.425,0.723,0.690,�k��,6.8,�L
2019/06/15,18:00,0.708,0.996,0.695,1.246,0.901,0.423,0.722,0.689,�k��,6.6,�L
2019/06/15,18:10,0.707,0.995,0.692,1.243,0.902,0.423,0.721,0.687,�k�k��,6.0,�L
2019/06/15,18:20,0.705,0.989,0.690,1.238,0.898,0.421,0.720,0.686,�k�k��,4.7,�L
2019/06/15,18:30,0.702,0.985,0.688,1.236,0.893,0.420,0.719,0.685,�k,4.5,�L
2019/06/15,18:40,0.701,0.984,0.686,1.234,0.892,0.422,0.718,0.683,�k�k��,6.2,�L
2019/06/15,18:50,0.703,0.985,0.689,1.233,0.890,0.422,0.720,0.687,�k�k��,5.3,�L
2019/06/15,19:00,0.706,0.992,0.690,1.237,0.894,0.422,0.719,0.689,�k,3.9,�L
2019/06/15,19:10,0.706,0.989,0.688,1.237,0.890,0.423,0.718,0.687,�k,3.6,�L
2019/06/15,19:20,0.706,0.987,0.690,1.235,0.890,0.424,0.719,0.687,�k�k��,4.8,�L
2019/06/15,19:30,0.705,0.990,0.690,1.235,0.890,0.422,0.720,0.687,�k�k��,6.2,�L
2019/06/15,19:40,0.704,0.990,0.689,1.239,0.891,0.422,0.720,0.688,�k�k��,5.8,�L
2019/06/15,19:50,0.710,0.994,0.689,1.238,0.890,0.423,0.723,0.690,�k�k��,6.0,�L
2019/06/15,20:00,0.710,0.995,0.691,1.244,0.894,0.425,0.722,0.690,�k��,6.1,�L
2019/06/15,20:10,0.711,0.998,0.692,1.242,0.891,0.424,0.723,0.688,�k��,7.5,�L
2019/06/15,20:20,0.707,0.996,0.690,1.242,0.890,0.423,0.723,0.690,�k��,8.1,�L
2019/06/15,20:30,0.704,0.991,0.689,1.236,0.891,0.423,0.722,0.689,�k�k��,10.5,�L
2019/06/15,20:40,0.706,0.996,0.691,1.239,0.892,0.423,0.722,0.690,�k�k��,10.5,�L
2019/06/15,20:50,0.708,0.998,0.693,1.245,0.894,0.423,0.723,0.691,�k�k��,10.7,�L
2019/06/15,21:00,0.711,1.003,0.693,1.249,0.897,0.424,0.724,0.691,�k�k��,11.6,�L
2019/06/15,21:10,0.712,1.004,0.692,1.252,0.896,0.423,0.726,0.692,�k�k��,11.3,�L
2019/06/15,21:20,0.713,1.007,0.696,1.253,0.898,0.423,0.726,0.691,�k�k��,11.1,�L
2019/06/15,21:30,0.714,1.007,0.694,1.256,0.897,0.425,0.727,0.692,�k�k��,10.7,�L
2019/06/15,21:40,0.715,1.004,0.694,1.255,0.897,0.422,0.725,0.692,�k�k��,9.7,�L
2019/06/15,21:50,0.715,1.002,0.695,1.252,0.895,0.424,0.724,0.692,�k�k��,10.6,�L
2019/06/15,22:00,0.713,1.002,0.695,1.255,0.896,0.422,0.725,0.693,�k�k��,8.3,�L
2019/06/15,22:10,0.714,1.005,0.695,1.258,0.895,0.422,0.726,0.693,�k�k��,8.3,�L
2019/06/15,22:20,0.713,1.007,0.695,1.259,0.897,0.421,0.728,0.694,�k��,7.6,�L
2019/06/15,22:30,0.716,1.007,0.695,1.260,0.898,0.421,0.727,0.694,�k��,7.7,��
2019/06/15,22:40,0.716,1.008,0.696,1.263,0.897,0.422,0.726,0.694,�k�k��,7.2,��
2019/06/15,22:50,0.715,1.010,0.697,1.260,0.900,0.424,0.729,0.695,�k�k��,6.9,��
2019/06/15,23:00,0.716,1.012,0.697,1.264,0.902,0.424,0.728,0.696,�k��,7.9,��
2019/06/15,23:10,0.716,1.012,0.697,1.265,0.902,0.424,0.730,0.695,�k��,7.9,�L
2019/06/15,23:20,0.719,1.014,0.698,1.267,0.905,0.423,0.729,0.696,�k�k��,7.0,�L
2019/06/15,23:30,0.720,1.012,0.697,1.269,0.904,0.424,0.730,0.697,�k�k��,6.3,�L
2019/06/15,23:40,0.719,1.016,0.697,1.269,0.907,0.421,0.728,0.696,�k�k��,5.8,��
2019/06/15,23:50,0.719,1.017,0.699,1.268,0.905,0.423,0.731,0.696,�k�k��,5.7,��
